DAUSZ EGHQ-EGHH

Flight info

Callsign DAUSZ
Flight time 0h 28m
Altitude 13000
Route DAWLY DCT BRIPO DCT GIBSO
Aircraft A346/H-SDE2E3FGHIJ3J4J5M1RWXY/LB1D1

Departure

Time 2026-04-27 20:38
Airport Cornwall Airport Newquay (EGHQ)

Arrival

Time 2026-04-27 21:06
Airport Bournemouth Airport (EGHH)
Time Latitude Longitude Altitude Speed Heading
2026-04-27 20:08 50.44156 -5.00603 337 ft 0 kts 65°
2026-04-27 20:27 50.44156 -5.00602 336 ft 0 kts 65°
2026-04-27 20:27 50.44162 -5.00583 333 ft 4 kts 66°
2026-04-27 20:28 50.44173 -5.00541 336 ft 3 kts 68°
2026-04-27 20:28 50.44179 -5.00515 336 ft 2 kts 70°
2026-04-27 20:28 50.44188 -5.00480 351 ft 5 kts 69°
2026-04-27 20:28 50.44204 -5.00442 354 ft 7 kts 44°
2026-04-27 20:29 50.44252 -5.00368 355 ft 9 kts 59°
2026-04-27 20:29 50.44283 -5.00264 355 ft 11 kts 66°
2026-04-27 20:29 50.44302 -5.00172 349 ft 9 kts 86°
2026-04-27 20:29 50.44282 -5.00074 358 ft 11 kts 121°
2026-04-27 20:30 50.44238 -4.99959 358 ft 14 kts 121°
2026-04-27 20:30 50.44186 -4.99821 358 ft 16 kts 121°
2026-04-27 20:30 50.44127 -4.99667 357 ft 17 kts 121°
2026-04-27 20:30 50.44088 -4.99551 360 ft 6 kts 96°
2026-04-27 20:31 50.44107 -4.99507 359 ft 6 kts 29°
2026-04-27 20:31 50.44149 -4.99494 359 ft 6 kts
2026-04-27 20:31 50.44180 -4.99489 360 ft 2 kts
2026-04-27 20:31 50.44185 -4.99489 361 ft 0 kts
2026-04-27 20:32 50.44186 -4.99489 361 ft 1 kts
2026-04-27 20:32 50.44204 -4.99490 365 ft 2 kts 356°
2026-04-27 20:32 50.44215 -4.99491 365 ft 3 kts 356°
2026-04-27 20:32 50.44233 -4.99481 371 ft 2 kts 51°
2026-04-27 20:33 50.44237 -4.99453 368 ft 4 kts 90°
2026-04-27 20:33 50.44225 -4.99392 367 ft 8 kts 115°
2026-04-27 20:33 50.44193 -4.99300 374 ft 11 kts 119°
2026-04-27 20:33 50.44150 -4.99181 374 ft 14 kts 121°
2026-04-27 20:34 50.44099 -4.99049 374 ft 15 kts 121°
2026-04-27 20:34 50.44042 -4.98902 378 ft 16 kts 121°
2026-04-27 20:34 50.43982 -4.98741 382 ft 17 kts 120°
2026-04-27 20:34 50.43917 -4.98568 387 ft 19 kts 120°
2026-04-27 20:35 50.43850 -4.98389 390 ft 18 kts 121°
2026-04-27 20:35 50.43786 -4.98222 393 ft 18 kts 121°
2026-04-27 20:35 50.43727 -4.98065 396 ft 15 kts 120°
2026-04-27 20:35 50.43665 -4.97926 398 ft 16 kts 136°
2026-04-27 20:36 50.43576 -4.97853 402 ft 12 kts 169°
2026-04-27 20:36 50.43502 -4.97855 404 ft 9 kts 195°
2026-04-27 20:36 50.43477 -4.97918 400 ft 10 kts 277°
2026-04-27 20:36 50.43503 -4.98010 397 ft 7 kts 300°
2026-04-27 20:37 50.43507 -4.98020 398 ft 0 kts 300°
2026-04-27 20:37 50.43588 -4.98234 391 ft 57 kts 301°
2026-04-27 20:37 50.43913 -4.99095 370 ft 123 kts 301°
2026-04-27 20:38 50.44439 -5.00507 360 ft 173 kts 302°
2026-04-27 20:38 50.45043 -5.02203 831 ft 180 kts 306°
2026-04-27 20:38 50.45679 -5.03914 1450 ft 184 kts 306°
2026-04-27 20:38 50.46300 -5.05675 2193 ft 184 kts 305°
2026-04-27 20:39 50.46948 -5.07466 2678 ft 194 kts 312°
2026-04-27 20:39 50.48049 -5.08596 2993 ft 202 kts 354°
2026-04-27 20:39 50.49442 -5.08082 3336 ft 222 kts 36°
2026-04-27 20:39 50.50348 -5.06020 3753 ft 246 kts 73°
2026-04-27 20:40 50.50562 -5.03261 4372 ft 260 kts 83°
2026-04-27 20:40 50.50664 -5.00389 5154 ft 265 kts 84°
2026-04-27 20:40 50.50768 -4.97466 5956 ft 270 kts 84°
2026-04-27 20:40 50.50880 -4.94486 6783 ft 275 kts 83°
2026-04-27 20:41 50.51010 -4.91466 7596 ft 279 kts 83°
2026-04-27 20:41 50.51153 -4.88407 8448 ft 282 kts 83°
2026-04-27 20:41 50.51301 -4.85299 9315 ft 286 kts 82°
2026-04-27 20:41 50.51453 -4.82160 10225 ft 289 kts 82°
2026-04-27 20:42 50.51612 -4.78965 10963 ft 297 kts 82°
2026-04-27 20:42 50.51778 -4.75635 11434 ft 314 kts 82°
2026-04-27 20:42 50.51953 -4.72107 11888 ft 332 kts 82°
2026-04-27 20:42 50.52073 -4.69672 12174 ft 344 kts 83°
2026-04-27 20:43 50.52262 -4.65817 12629 ft 360 kts 83°
2026-04-27 20:43 50.52453 -4.61842 13146 ft 368 kts 83°
2026-04-27 20:43 50.52643 -4.57810 13301 ft 371 kts 83°
2026-04-27 20:43 50.52834 -4.53765 13295 ft 371 kts 83°
2026-04-27 20:44 50.53086 -4.48400 13298 ft 371 kts 83°
2026-04-27 20:44 50.53213 -4.45664 13296 ft 371 kts 83°
2026-04-27 20:44 50.53400 -4.41617 13296 ft 371 kts 83°
2026-04-27 20:44 50.53586 -4.37563 13298 ft 371 kts 83°
2026-04-27 20:45 50.53771 -4.33514 13299 ft 371 kts 83°
2026-04-27 20:45 50.53955 -4.29463 13290 ft 371 kts 83°
2026-04-27 20:45 50.54139 -4.25413 13291 ft 371 kts 83°
2026-04-27 20:45 50.54321 -4.21358 13293 ft 371 kts 83°
2026-04-27 20:46 50.54501 -4.17306 13301 ft 371 kts 83°
2026-04-27 20:46 50.54680 -4.13240 13297 ft 373 kts 83°
2026-04-27 20:46 50.54857 -4.09223 13292 ft 373 kts 83°
2026-04-27 20:46 50.55037 -4.05091 13286 ft 373 kts 83°
2026-04-27 20:47 50.55213 -4.01016 13282 ft 373 kts 83°
2026-04-27 20:47 50.55385 -3.96992 13284 ft 373 kts 83°
2026-04-27 20:47 50.55560 -3.92891 13285 ft 373 kts 83°
2026-04-27 20:47 50.55731 -3.88803 13276 ft 373 kts 83°
2026-04-27 20:48 50.55902 -3.84727 13278 ft 373 kts 83°
2026-04-27 20:48 50.56071 -3.80641 13279 ft 373 kts 83°
2026-04-27 20:48 50.56239 -3.76553 13255 ft 373 kts 83°
2026-04-27 20:48 50.56405 -3.72478 12999 ft 372 kts 83°
2026-04-27 20:49 50.56568 -3.68420 12744 ft 371 kts 83°
2026-04-27 20:49 50.56730 -3.64377 12485 ft 369 kts 83°
2026-04-27 20:49 50.56888 -3.60390 12229 ft 368 kts 83°
2026-04-27 20:49 50.57045 -3.56375 11975 ft 366 kts 83°
2026-04-27 20:50 50.57200 -3.52377 11712 ft 365 kts 83°
2026-04-27 20:50 50.57412 -3.48408 11449 ft 362 kts 80°
2026-04-27 20:50 50.57829 -3.44517 11212 ft 358 kts 75°
2026-04-27 20:50 50.58453 -3.40745 10972 ft 355 kts 71°
2026-04-27 20:51 50.59154 -3.37012 10726 ft 353 kts 70°
2026-04-27 20:51 50.59862 -3.33313 10477 ft 352 kts 70°
2026-04-27 20:51 50.60563 -3.29633 10251 ft 349 kts 70°
2026-04-27 20:51 50.61254 -3.25990 10080 ft 346 kts 70°
2026-04-27 20:52 50.61941 -3.22367 9962 ft 344 kts 70°
2026-04-27 20:52 50.62624 -3.18752 9839 ft 343 kts 70°
2026-04-27 20:52 50.63299 -3.15154 9654 ft 338 kts 71°
2026-04-27 20:52 50.63945 -3.11695 9344 ft 317 kts 71°
2026-04-27 20:53 50.64540 -3.08489 9205 ft 294 kts 71°
2026-04-27 20:53 50.65104 -3.05463 9126 ft 283 kts 70°
2026-04-27 20:53 50.65658 -3.02495 8978 ft 282 kts 71°
2026-04-27 20:53 50.66213 -2.99532 8856 ft 281 kts 71°
2026-04-27 20:54 50.67306 -2.93652 8589 ft 280 kts 71°
2026-04-27 20:54 50.67854 -2.90696 8454 ft 280 kts 71°
2026-04-27 20:54 50.68397 -2.87753 8326 ft 279 kts 71°
2026-04-27 20:55 50.68937 -2.84808 8201 ft 279 kts 71°
2026-04-27 20:55 50.69477 -2.81864 8077 ft 278 kts 72°
2026-04-27 20:55 50.70016 -2.78925 7954 ft 278 kts 72°
2026-04-27 20:55 50.70554 -2.75988 7818 ft 278 kts 72°
2026-04-27 20:56 50.71092 -2.73056 7671 ft 277 kts 72°
2026-04-27 20:56 50.71626 -2.70134 7521 ft 276 kts 72°
2026-04-27 20:56 50.72160 -2.67218 7346 ft 276 kts 72°
2026-04-27 20:56 50.72691 -2.64306 7117 ft 275 kts 72°
2026-04-27 20:57 50.73219 -2.61408 6847 ft 273 kts 72°
2026-04-27 20:57 50.73740 -2.58537 6560 ft 272 kts 72°
2026-04-27 20:57 50.74260 -2.55675 6288 ft 268 kts 72°
2026-04-27 20:57 50.74727 -2.52847 6024 ft 264 kts 77°
2026-04-27 20:58 50.74951 -2.50036 5783 ft 259 kts 85°
2026-04-27 20:58 50.74990 -2.47211 5558 ft 254 kts 88°
2026-04-27 20:58 50.74997 -2.44446 5325 ft 249 kts 88°
2026-04-27 20:58 50.74999 -2.41728 5059 ft 245 kts 88°
2026-04-27 20:59 50.75001 -2.39042 4737 ft 244 kts 88°
2026-04-27 20:59 50.75007 -2.36378 4421 ft 241 kts 88°
2026-04-27 20:59 50.75014 -2.33743 4153 ft 238 kts 88°
2026-04-27 20:59 50.75016 -2.31152 3909 ft 232 kts 87°
2026-04-27 21:00 50.75019 -2.28655 3647 ft 222 kts 86°
2026-04-27 21:00 50.75022 -2.26272 3416 ft 212 kts 86°
2026-04-27 21:00 50.75026 -2.23990 3208 ft 201 kts 85°
2026-04-27 21:00 50.75028 -2.21855 2976 ft 187 kts 85°
2026-04-27 21:01 50.75033 -2.19870 2936 ft 175 kts 85°
2026-04-27 21:01 50.75035 -2.18022 2909 ft 164 kts 84°
2026-04-27 21:01 50.75038 -2.16231 2913 ft 162 kts 84°
2026-04-27 21:01 50.75045 -2.14454 2879 ft 161 kts 84°
2026-04-27 21:02 50.75052 -2.12678 2803 ft 161 kts 84°
2026-04-27 21:02 50.75056 -2.10904 2705 ft 161 kts 84°
2026-04-27 21:02 50.75057 -2.09137 2571 ft 161 kts 84°
2026-04-27 21:02 50.75057 -2.07370 2359 ft 160 kts 84°
2026-04-27 21:03 50.75058 -2.05613 2141 ft 160 kts 85°
2026-04-27 21:03 50.75054 -2.03863 1909 ft 158 kts 81°
2026-04-27 21:03 50.75156 -2.02140 1741 ft 157 kts 75°
2026-04-27 21:03 50.75350 -2.00460 1686 ft 157 kts 72°
2026-04-27 21:04 50.75602 -1.98778 1690 ft 158 kts 70°
2026-04-27 21:04 50.75879 -1.97091 1583 ft 158 kts 69°
2026-04-27 21:04 50.76160 -1.95409 1361 ft 158 kts 70°
2026-04-27 21:04 50.76437 -1.93732 1153 ft 157 kts 70°
2026-04-27 21:05 50.76713 -1.92060 942 ft 157 kts 71°
2026-04-27 21:05 50.76990 -1.90393 735 ft 156 kts 73°
2026-04-27 21:05 50.77263 -1.88728 529 ft 156 kts 72°
2026-04-27 21:05 50.77538 -1.87071 335 ft 155 kts 72°
2026-04-27 21:06 50.77813 -1.85420 119 ft 155 kts 76°
2026-04-27 21:06 50.78056 -1.83950 52 ft 98 kts 75°
2026-04-27 21:06 50.78150 -1.83384 54 ft 31 kts 75°
2026-04-27 21:06 50.78185 -1.83174 50 ft 9 kts 75°
2026-04-27 21:07 50.78193 -1.83126 51 ft 5 kts 75°
2026-04-27 21:07 50.78197 -1.83086 52 ft 2 kts 100°
2026-04-27 21:07 50.78180 -1.83058 51 ft 5 kts 149°
2026-04-27 21:07 50.78151 -1.83055 51 ft 4 kts 203°
2026-04-27 21:08 50.78130 -1.83088 52 ft 6 kts 230°
2026-04-27 21:08 50.78098 -1.83149 49 ft 9 kts 230°
2026-04-27 21:08 50.78061 -1.83234 49 ft 8 kts 240°
2026-04-27 21:08 50.78037 -1.83313 50 ft 9 kts 245°
2026-04-27 21:09 50.78013 -1.83391 51 ft 2 kts 243°
2026-04-27 21:09 50.78003 -1.83421 48 ft 5 kts 238°
2026-04-27 21:09 50.77972 -1.83469 50 ft 7 kts 212°
2026-04-27 21:09 50.77925 -1.83483 53 ft 8 kts 178°
2026-04-27 21:10 50.77867 -1.83476 49 ft 6 kts 163°
2026-04-27 21:10 50.77849 -1.83443 49 ft 4 kts 102°
2026-04-27 21:10 50.77846 -1.83409 53 ft 2 kts 95°
2026-04-27 21:10 50.77846 -1.83394 54 ft 0 kts 91°